| time (UTC) | temp F | wind direction | speed MPH | gust MPH | rain 1hr in | rain 24hr in | rain mn in | humidity % | barometer mb |
| 20260502230050 | 67 | 271 | 12.0 | 18.0 | 0.00 | 0.00 | 0.00 | 75 | 1010.9 |
| 20260502224602 | 68 | 257 | 10.0 | 16.0 | 0.00 | 0.00 | 0.00 | 75 | 1011.3 |
| 20260502223046 | 68 | 267 | 7.0 | 16.0 | 0.00 | 0.00 | 0.00 | 75 | 1011.7 |
| 20260502221543 | 68 | 221 | 7.0 | 15.0 | 0.00 | 0.00 | 0.00 | 75 | 1012.1 |
| 20260502220042 | 68 | 259 | 8.0 | 17.0 | 0.00 | 0.00 | 0.00 | 75 | 1012.3 |
| 20260502214541 | 69 | 263 | 6.0 | 15.0 | 0.00 | 0.00 | 0.00 | 76 | 1012.5 |
| 20260502213037 | 69 | 266 | 5.0 | 15.0 | 0.00 | 0.00 | 0.00 | 77 | 1012.7 |
| 20260502211541 | 68 | 273 | 5.0 | 16.0 | 0.00 | 0.00 | 0.00 | 77 | 1012.9 |
| 20260502210038 | 69 | 243 | 5.0 | 12.0 | 0.00 | 0.00 | 0.00 | 76 | 1013.0 |
| 20260502204530 | 69 | 283 | 6.0 | 12.0 | 0.00 | 0.00 | 0.00 | 76 | 1013.1 |
| 20260502203029 | 69 | 227 | 2.0 | 8.0 | 0.00 | 0.00 | 0.00 | 76 | 1013.0 |
| 20260502201525 | 68 | 236 | 4.0 | 11.0 | 0.00 | 0.00 | 0.00 | 77 | 1013.2 |
| 20260502200026 | 67 | 216 | 5.0 | 12.0 | 0.00 | 0.00 | 0.00 | 78 | 1013.5 |
| 20260502194523 | 67 | 242 | 5.0 | 14.0 | 0.00 | 0.00 | 0.00 | 79 | 1013.9 |
| 20260502193019 | 66 | 255 | 3.0 | 10.0 | 0.00 | 0.00 | 0.00 | 81 | 1013.7 |
| 20260502191518 | 66 | 247 | 2.0 | 9.0 | 0.00 | 0.00 | 0.00 | 82 | 1013.9 |
| 20260502190015 | 65 | 254 | 1.0 | 9.0 | 0.00 | 0.00 | 0.00 | 83 | 1014.2 |
| 20260502184511 | 65 | 246 | 3.0 | 9.0 | 0.00 | 0.00 | 0.00 | 82 | 1014.3 |
| 20260502183022 | 65 | 231 | 5.0 | 10.0 | 0.00 | 0.00 | 0.00 | 82 | 1014.3 |
| 20260502181514 | 64 | 280 | 0.0 | 0.0 | 0.00 | 0.00 | 0.00 | 84 | 1014.2 |
| 20260502163057 | 61 | 242 | 1.0 | 6.0 | 0.00 | 0.00 | 0.00 | 90 | 1015.1 |
| 20260502161551 | 61 | 287 | 2.0 | 5.0 | 0.00 | 0.00 | 0.00 | 90 | 1015.0 |
| 20260502151540 | 0 | 0.0 | 0.0 | 0.00 | 0.00 | 0.00 | 1014.9 | ||
| 20260502123046 | 0 | 0.0 | 0.0 | 0.00 | 0.00 | 0.00 | 1013.7 | ||
| 20260502121539 | 0 | 0.0 | 0.0 | 0.00 | 0.00 | 0.00 | 1013.6 | ||
| 20260502114531 | 0 | 0.0 | 0.0 | 0.00 | 0.00 | 0.00 | 1013.4 | ||
| 20260502113028 | 61 | 270 | 0.0 | 4.0 | 0.00 | 0.00 | 0.00 | 91 | 1013.3 |
| 20260502111523 | 61 | 215 | 1.0 | 4.0 | 0.00 | 0.00 | 0.00 | 91 | 1013.3 |
| 20260502110022 | 61 | 289 | 0.0 | 0.0 | 0.00 | 0.00 | 0.00 | 91 | 1013.4 |
| 20260502104524 | 61 | 289 | 0.0 | 0.0 | 0.00 | 0.00 | 0.00 | 91 | 1013.1 |
| 20260502103022 | 61 | 289 | 0.0 | 3.0 | 0.00 | 0.00 | 0.00 | 92 | 1013.2 |
| 20260502101539 | 60 | 289 | 2.0 | 5.0 | 0.00 | 0.00 | 0.00 | 92 | 1013.0 |
| 20260502091514 | 60 | 277 | 2.0 | 5.0 | 0.00 | 0.00 | 0.00 | 93 | 1013.1 |
| 20260502070116 | 60 | 277 | 2.0 | 5.0 | 0.00 | 0.00 | 0.00 | 91 | 1014.0 |
| 20260502064557 | 60 | 277 | 2.0 | 4.0 | 0.00 | 0.00 | 0.00 | 91 | 1013.9 |
| 20260502063059 | 60 | 277 | 2.0 | 6.0 | 0.00 | 0.00 | 0.00 | 91 | 1014.0 |
| 20260502061554 | 61 | 278 | 0.0 | 7.0 | 0.00 | 0.00 | 0.00 | 90 | 1013.8 |
| 20260502060052 | 61 | 277 | 2.0 | 5.0 | 0.00 | 0.00 | 0.00 | 90 | 1013.8 |
| 20260502054555 | 61 | 279 | 3.0 | 7.0 | 0.00 | 0.00 | 0.00 | 90 | 1013.7 |
| 20260502053049 | 61 | 290 | 1.0 | 5.0 | 0.00 | 0.00 | 0.00 | 90 | 1013.9 |
| 20260502051610 | 61 | 286 | 3.0 | 7.0 | 0.00 | 0.00 | 0.00 | 90 | 1013.9 |
| 20260502050053 | 61 | 284 | 3.0 | 6.0 | 0.00 | 0.00 | 0.00 | 90 | 1013.8 |
| 20260502044548 | 62 | 286 | 3.0 | 9.0 | 0.00 | 0.00 | 0.00 | 90 | 1013.7 |
| 20260502043051 | 62 | 282 | 3.0 | 8.0 | 0.00 | 0.00 | 0.00 | 90 | 1013.5 |
| 20260502041548 | 62 | 264 | 2.0 | 12.0 | 0.00 | 0.00 | 0.00 | 89 | 1013.2 |
| 20260502040055 | 62 | 272 | 4.0 | 9.0 | 0.00 | 0.00 | 0.00 | 89 | 1013.1 |
| 20260502034541 | 62 | 285 | 5.0 | 11.0 | 0.00 | 0.00 | 0.00 | 89 | 1012.8 |
| 20260502033042 | 62 | 272 | 6.0 | 13.0 | 0.00 | 0.00 | 0.00 | 89 | 1012.6 |
| 20260502031541 | 62 | 273 | 7.0 | 13.0 | 0.00 | 0.00 | 0.00 | 88 | 1012.5 |
| 20260502030038 | 63 | 277 | 8.0 | 13.0 | 0.00 | 0.00 | 0.00 | 87 | 1012.4 |
| 20260502024539 | 63 | 305 | 8.0 | 15.0 | 0.00 | 0.00 | 0.00 | 87 | 1012.3 |
| 20260502023042 | 64 | 309 | 8.0 | 14.0 | 0.00 | 0.00 | 0.00 | 86 | 1012.1 |
| 20260502021533 | 64 | 306 | 8.0 | 15.0 | 0.00 | 0.00 | 0.00 | 85 | 1012.0 |
| 20260502020038 | 65 | 246 | 10.0 | 16.0 | 0.00 | 0.00 | 0.00 | 84 | 1011.8 |
| 20260502014532 | 65 | 288 | 12.0 | 18.0 | 0.00 | 0.00 | 0.00 | 84 | 1011.7 |
| 20260502013051 | 66 | 265 | 10.0 | 17.0 | 0.00 | 0.00 | 0.00 | 83 | 1011.6 |
| 20260502011528 | 67 | 267 | 9.0 | 17.0 | 0.00 | 0.00 | 0.00 | 81 | 1011.4 |
| 20260502010027 | 67 | 266 | 11.0 | 18.0 | 0.00 | 0.00 | 0.00 | 80 | 1011.5 |
| 20260502004525 | 68 | 267 | 11.0 | 17.0 | 0.00 | 0.00 | 0.00 | 79 | 1011.6 |
| 20260502003026 | 68 | 271 | 5.0 | 15.0 | 0.00 | 0.00 | 0.00 | 79 | 1011.6 |
| 20260502001523 | 68 | 223 | 8.0 | 12.0 | 0.00 | 0.00 | 0.00 | 77 | 1011.6 |
| 20260502000020 | 69 | 263 | 8.0 | 14.0 | 0.00 | 0.00 | 0.00 | 77 | 1011.7 |
| 20260501234518 | 68 | 259 | 11.0 | 16.0 | 0.00 | 0.00 | 0.00 | 77 | 1011.8 |
| 20260501233022 | 69 | 259 | 11.0 | 18.0 | 0.00 | 0.00 | 0.00 | 76 | 1011.8 |
| 20260501231517 | 70 | 279 | 9.0 | 14.0 | 0.00 | 0.00 | 0.00 | 74 | 1011.9 |